Zurück zum Katalog

SJ-11-05

AktivWissenschaftSSO
NORAD 39202·PAYLOAD·🇨🇳 China

Gestartet Jul 15, 2013 von Jiuquan Satellite Launch Center

Loading…

Nächste Überflüge (nächste 24 Stunden)

TLE

AktuellSource: Space-Track

Epoche: Sep 14, 2026, 22:37 UTC

1 39202U 13035A   26257.94301291  .00000223  00000-0  50969-4 0  9999
2 39202  98.2866  83.4034 0009190 320.3950  39.6580 14.64969234702378

Verfolge SJ-11-05 in Echtzeit mit AllMySat

Download on the App Store